[[{"header":{"parameterUnit":"m.s-1","parameterCategory":1,"la1":30.2991,"la2":30.254,"lo1":-89.0895,"lo2":-89.0444,"dy":0.0017,"dx":0.0017,"nx":28,"ny":28,"refTime":"2025-08-25T09:00:00:Z","depth":0,"parameterNumber":2,"parameterNumberName":"U-component_of_WINDS"},"data":[0,0,0,0,0,0,0,0,0,0,0,0,0,0,0,0,0,0,0,0,0,0,0,0,0,0,0,0,0,0,0,0,0,0,0,0,0,0,0,0,0,0,0,0,0,0,0,0,0,0,0,0,0,0,0,0,0,0,-1.3114,-1.3113,0,-1.302,-1.3019,-1.3018,-1.2955,-1.2954,-1.2954,-1.2954,-1.2858,-1.2856,-1.2854,0,0,0,0,0,0,0,0,0,0,0,0,0,-1.3242,-1.324,-1.3114,-1.3113,-1.3112,-1.302,-1.3019,-1.3017,-1.2955,-1.2954,-1.2954,-1.2953,-1.2859,-1.2856,-1.2854,0,0,0,0,0,0,0,0,0,0,0,0,0,-1.3171,-1.324,-1.3114,-1.3069,-1.3064,-1.302,-1.3019,-1.3017,-1.2955,-1.2954,-1.2954,-1.2953,-1.286,-1.2857,-1.2853,-1.2847,0,0,-1.2844,-1.2842,0,0,0,0,0,0,0,0,-1.3175,-1.3167,-1.3077,-1.3072,-1.3067,-1.2998,-1.3029,-1.296,-1.2955,-1.2997,-1.2954,-1.2953,-1.2905,-1.2898,-1.2882,-1.2842,-1.2838,-1.2843,-1.2841,-1.284,-1.2839,0,0,0,0,0,0,0,-1.318,-1.317,-1.3077,-1.3076,-1.307,-1.3055,-1.3044,-1.3016,-1.2956,-1.2993,-1.2988,-1.2978,-1.2902,-1.2885,-1.2879,-1.2837,-1.2843,-1.2841,-1.2839,-1.2837,-1.279,-1.2791,0,0,0,0,0,0,-1.3192,-1.3175,-1.308,-1.3074,-1.3121,-1.3053,-1.3041,-1.3021,-1.2956,-1.2945,-1.2979,-1.2975,-1.2891,-1.2883,-1.2876,-1.2866,-1.284,-1.2837,-1.2835,-1.2789,-1.279,-1.2791,0,0,0,0,0,0,-1.3195,-1.3184,-1.3084,-1.3123,-1.3109,-1.3052,-1.303,-1.302,-1.3002,-1.2945,-1.2934,-1.2972,-1.289,-1.288,-1.2855,-1.2862,-1.2836,-1.2833,-1.2789,-1.279,-1.2791,-1.2845,0,0,0,0,0,0,-1.3199,-1.3186,-1.3182,-1.3123,-1.3107,-1.3064,-1.303,-1.3018,-1.2997,-1.2992,-1.2936,-1.2926,-1.2889,-1.286,-1.2852,-1.2857,-1.283,-1.2788,-1.2789,-1.279,-1.2843,-1.2848,-1.2853,0,0,0,0,0,-1.3204,-1.32,-1.3182,-1.3171,-1.3101,-1.3064,-1.3055,-1.3012,-1.2998,-1.2994,-1.2958,-1.2928,-1.2862,-1.2858,-1.2848,-1.2852,-1.2787,-1.2789,-1.279,-1.284,-1.2847,-1.2853,0,0,0,0,0,0,-1.326,-1.3192,-1.317,-1.3147,-1.3112,-1.3053,-1.3047,-1.302,-1.2988,-1.2984,-1.2933,-1.2921,-1.2902,-1.2874,-1.2871,-1.2844,-1.2821,-1.2821,-1.2863,-1.2869,-1.2874,-1.2881,-1.2827,0,0,0,0,0,-1.327,-1.3245,-1.3187,-1.3172,-1.3156,-1.3105,-1.3087,-1.3057,-1.3019,-1.3004,-1.2965,-1.2929,-1.2901,-1.2883,-1.2853,-1.2838,-1.2827,-1.2837,-1.2842,-1.2846,-1.2847,-1.284,-1.2844,-1.2796,-1.2796,-1.2796,0,0,-1.329,-1.3249,-1.3236,-1.3183,-1.3152,-1.3129,-1.3092,-1.3068,-1.3051,-1.3,-1.2974,-1.2945,-1.2902,-1.2883,-1.2872,-1.2859,-1.2858,-1.2848,-1.2852,-1.285,-1.2842,-1.2847,-1.2851,-1.2797,-1.2797,-1.2797,0,0,-1.3314,-1.328,-1.3266,-1.3236,-1.319,-1.3157,-1.3154,-1.31,-1.3079,-1.3052,-1.3014,-1.2993,-1.2944,-1.2916,-1.2896,-1.2913,-1.2886,-1.2905,-1.2932,-1.2926,-1.2929,-1.2933,-1.2942,-1.2945,-1.2906,-1.2906,-1.2906,0,-1.3345,-1.3307,-1.3262,-1.3241,-1.322,-1.3173,-1.3159,-1.3133,-1.308,-1.3067,-1.3053,-1.2993,-1.296,-1.2935,-1.294,-1.2924,-1.2921,-1.2911,-1.2932,-1.2935,-1.2938,-1.2945,-1.2949,-1.2909,-1.2908,-1.2908,-1.2908,0,-1.3349,-1.3324,-1.3318,-1.3269,-1.3247,-1.3229,-1.3183,-1.3166,-1.3139,-1.3108,-1.3084,-1.3043,-1.3006,-1.2998,-1.2971,-1.297,-1.2964,-1.2942,-1.2918,-1.2946,-1.2953,-1.2955,-1.2913,-1.2912,-1.2911,-1.291,0,0,-1.3404,-1.3333,-1.3331,-1.331,-1.3257,-1.3238,-1.322,-1.3184,-1.3172,-1.3137,-1.3122,-1.3084,-1.3064,-1.3041,-1.3011,-1.3005,-1.3026,-1.2984,-1.2983,-1.2995,-1.3026,-1.3044,-1.3048,-1.3007,-1.3007,-1.3007,-1.303,0,-1.3422,-1.3387,-1.3347,-1.3326,-1.3305,-1.3261,-1.3246,-1.3213,-1.3184,-1.3162,-1.313,-1.3105,-1.3079,-1.3066,-1.3058,-1.3025,-1.3031,-1.3022,-1.2994,-1.2994,-1.3008,-1.3051,-1.3069,-1.3092,-1.3032,-1.3033,-1.3033,0,-1.3438,-1.3407,-1.3385,-1.3337,-1.3326,-1.3313,-1.3279,-1.3258,-1.3221,-1.32,-1.3176,-1.3144,-1.3125,-1.3104,-1.3079,-1.3074,-1.306,-1.3042,-1.3042,-1.3039,-1.3016,-1.3051,-1.3098,-1.3103,-1.3036,-1.3036,-1.3036,0,-1.3484,-1.3437,-1.3418,-1.3401,-1.3344,-1.3336,-1.3312,-1.3274,-1.3257,-1.3227,-1.3216,-1.3184,-1.3167,-1.3144,-1.3106,-1.3093,-1.3086,-1.306,-1.307,-1.3071,-1.3071,-1.3072,-1.3119,-1.306,-1.306,-1.306,-1.3059,0,-1.3509,-1.3498,-1.3438,-1.3427,-1.3414,-1.3369,-1.3357,-1.333,-1.3297,-1.3281,-1.3241,-1.3227,-1.3176,-1.3157,-1.3126,-1.3112,-1.3104,-1.3088,-1.3081,-1.3093,-1.3095,-1.3084,-1.3082,-1.306,-1.306,-1.306,-1.306,0,-1.3558,-1.3517,-1.3495,-1.3444,-1.3431,-1.3424,-1.3381,-1.3369,-1.3339,-1.3319,-1.3312,-1.3265,-1.324,-1.32,-1.3162,-1.3142,-1.3134,-1.312,-1.3147,-1.3143,-1.3156,-1.3156,-1.3199,-1.3204,-1.314,-1.3141,-1.3141,0,-1.3577,-1.3568,-1.3516,-1.3503,-1.3481,-1.3459,-1.3441,-1.3398,-1.3381,-1.334,-1.3334,-1.3307,-1.3282,-1.3246,-1.3209,-1.3181,-1.3168,-1.3185,-1.3163,-1.3177,-1.3171,-1.3173,-1.3173,-1.319,-1.3191,-1.3192,-1.3192,0,-1.3616,-1.3598,-1.3573,-1.3543,-1.3523,-1.3497,-1.3469,-1.3461,-1.3411,-1.3395,-1.337,-1.3351,-1.3315,-1.3289,-1.3257,-1.3234,-1.3206,-1.3199,-1.3201,-1.3214,-1.3231,-1.3224,-1.3163,-1.3199,-1.3198,-1.3198,-1.3197,-1.3197,-1.3652,-1.3643,-1.3607,-1.3582,-1.3557,-1.3532,-1.352,-1.3489,-1.3467,-1.3435,-1.341,-1.3388,-1.3354,-1.3308,-1.3287,-1.327,-1.3257,-1.3258,-1.3259,-1.326,-1.3266,-1.3233,-1.3264,-1.3263,-1.3263,-1.3263,-1.3263,0,-1.3691,-1.3667,-1.3644,-1.3607,-1.3589,-1.3564,-1.3533,-1.3519,-1.35,-1.3471,-1.3448,-1.3421,-1.3397,-1.3359,-1.3333,-1.3326,-1.3313,-1.3321,-1.3322,-1.3318,-1.3278,-1.3281,-1.3333,-1.3333,-1.3333,-1.3333,-1.3333,-1.3333,-1.371,-1.3694,-1.3672,-1.3644,-1.3619,-1.3597,-1.3582,-1.356,-1.3537,-1.3509,-1.3489,-1.3464,-1.3433,-1.3404,-1.3382,-1.3371,-1.3364,-1.3377,-1.3363,-1.3327,-1.332,-1.3314,-1.3316,-1.3375,-1.3375,-1.3405,-1.3405,-1.3405]},{"header":{"parameterUnit":"m.s-1","parameterCategory":1,"la1":30.2991,"la2":30.254,"lo1":-89.0895,"lo2":-89.0444,"dy":0.0017,"dx":0.0017,"nx":28,"ny":28,"refTime":"2025-08-25T09:00:00:Z","depth":0,"parameterNumber":3,"parameterNumberName":"V-component_of_WINDS"},"data":[0,0,0,0,0,0,0,0,0,0,0,0,0,0,0,0,0,0,0,0,0,0,0,0,0,0,0,0,0,0,0,0,0,0,0,0,0,0,0,0,0,0,0,0,0,0,0,0,0,0,0,0,0,0,0,0,0,0,2.1584,2.1584,0,2.1555,2.1554,2.1554,2.1501,2.15,2.1499,2.1498,2.1466,2.1466,2.1467,0,0,0,0,0,0,0,0,0,0,0,0,0,2.1593,2.1593,2.1584,2.1584,2.1583,2.1555,2.1554,2.1554,2.1501,2.15,2.1498,2.1497,2.1466,2.1466,2.1467,0,0,0,0,0,0,0,0,0,0,0,0,0,2.1579,2.1593,2.1584,2.1554,2.1551,2.1555,2.1554,2.1554,2.1501,2.15,2.1498,2.1497,2.1466,2.1466,2.1467,2.1498,0,0,2.1467,2.1467,0,0,0,0,0,0,0,0,2.158,2.1579,2.1558,2.1556,2.1552,2.153,2.1546,2.1535,2.1502,2.152,2.1498,2.1496,2.1489,2.1487,2.1485,2.1497,2.1495,2.1467,2.1467,2.1467,2.1467,0,0,0,0,0,0,0,2.1581,2.158,2.1572,2.1558,2.1554,2.1541,2.1537,2.1544,2.1513,2.1518,2.1514,2.1512,2.1487,2.1485,2.1484,2.1495,2.1467,2.1467,2.1467,2.1467,2.1528,2.1529,0,0,0,0,0,0,2.1586,2.1581,2.1573,2.1572,2.1563,2.1542,2.1538,2.1539,2.1513,2.1508,2.1513,2.1509,2.1485,2.1483,2.1482,2.1514,2.1467,2.1467,2.1468,2.1526,2.1528,2.153,0,0,0,0,0,0,2.1587,2.1586,2.1575,2.1575,2.1572,2.1543,2.1545,2.1539,2.1537,2.1509,2.1503,2.1516,2.1484,2.1482,2.1494,2.1512,2.1468,2.1468,2.1524,2.1527,2.1529,2.158,0,0,0,0,0,0,2.1587,2.1587,2.1599,2.1576,2.1573,2.1587,2.1546,2.1539,2.1537,2.1532,2.1511,2.1506,2.1482,2.1494,2.1494,2.1512,2.1468,2.1522,2.1525,2.1528,2.1577,2.1584,2.159,0,0,0,0,0,2.1588,2.1615,2.16,2.1599,2.1587,2.1589,2.1587,2.156,2.1539,2.155,2.1532,2.1506,2.1511,2.1496,2.1495,2.1513,2.1521,2.1525,2.1528,2.1573,2.1582,2.159,0,0,0,0,0,0,2.1641,2.1611,2.1594,2.1615,2.1605,2.158,2.1593,2.1571,2.1566,2.1561,2.1528,2.1523,2.1539,2.1528,2.1511,2.1541,2.1512,2.1515,2.1547,2.1555,2.1562,2.1562,2.1468,0,0,0,0,0,2.1655,2.1659,2.1633,2.1654,2.1649,2.1622,2.1622,2.1602,2.159,2.1585,2.1568,2.1557,2.1556,2.1555,2.1553,2.1576,2.1569,2.1588,2.1595,2.1601,2.1603,2.1611,2.1618,2.1541,2.1541,2.154,0,0,2.1684,2.1668,2.1673,2.1664,2.1653,2.1657,2.1619,2.1625,2.1627,2.1586,2.1595,2.1583,2.1568,2.1584,2.1591,2.1576,2.1623,2.1605,2.161,2.1609,2.1615,2.1622,2.1629,2.1543,2.1542,2.1542,0,0,2.1737,2.1728,2.1742,2.1733,2.1717,2.1699,2.1703,2.1681,2.1671,2.168,2.1649,2.1651,2.165,2.164,2.1634,2.1684,2.1659,2.1685,2.1718,2.1727,2.1733,2.1738,2.1752,2.1758,2.1688,2.1688,2.1688,0,2.1775,2.1779,2.1752,2.1759,2.1755,2.172,2.1733,2.1725,2.171,2.1707,2.1691,2.1688,2.1676,2.1688,2.17,2.1698,2.1699,2.1685,2.1734,2.1739,2.1743,2.1756,2.1762,2.1691,2.169,2.169,2.169,0,2.1824,2.1828,2.1842,2.1827,2.1825,2.1836,2.1809,2.181,2.1791,2.1774,2.1783,2.1767,2.1759,2.1762,2.1743,2.1771,2.1761,2.1741,2.171,2.1754,2.1766,2.1771,2.1695,2.1694,2.1693,2.1692,0,0,2.1907,2.1878,2.1883,2.1875,2.1856,2.1858,2.1867,2.1859,2.1859,2.1851,2.1855,2.1855,2.1835,2.183,2.181,2.1818,2.1854,2.1795,2.1795,2.1804,2.1879,2.1892,2.1898,2.1839,2.184,2.184,2.1879,0,2.1953,2.1966,2.1942,2.1959,2.1961,2.1927,2.1934,2.1923,2.1908,2.1906,2.189,2.1888,2.1864,2.186,2.1867,2.1848,2.1868,2.1846,2.184,2.184,2.184,2.1905,2.1919,2.1956,2.1884,2.1884,2.1885,0,2.2008,2.2002,2.2019,2.1997,2.1997,2.2004,2.1994,2.1994,2.198,2.1969,2.1962,2.1939,2.1944,2.1918,2.1923,2.1909,2.1905,2.1896,2.1897,2.1892,2.1862,2.1898,2.1968,2.1972,2.1893,2.1892,2.1891,0,2.2062,2.2058,2.2067,2.2062,2.2038,2.2043,2.2033,2.2018,2.2015,2.2007,2.2004,2.1997,2.1992,2.1987,2.1962,2.1945,2.1969,2.1941,2.1957,2.1957,2.196,2.196,2.2026,2.1965,2.1965,2.1965,2.1965,0,2.2113,2.2125,2.2091,2.2096,2.2107,2.208,2.2091,2.2078,2.2065,2.2066,2.2038,2.2039,2.2008,2.2006,2.1987,2.1993,2.1992,2.1981,2.1975,2.1981,2.1982,2.1976,2.1971,2.1966,2.1966,2.1966,2.1965,0,2.2174,2.2152,2.2159,2.2136,2.2131,2.214,2.2119,2.2122,2.2106,2.2108,2.2107,2.2081,2.2077,2.2052,2.2043,2.203,2.2041,2.2032,2.2046,2.2041,2.2057,2.2054,2.2119,2.2124,2.2063,2.2064,2.2064,0,2.2206,2.2213,2.2191,2.219,2.2182,2.2181,2.2177,2.2151,2.2148,2.2132,2.2137,2.2131,2.2124,2.2119,2.2098,2.209,2.2079,2.2102,2.2077,2.2082,2.2074,2.2073,2.2072,2.2106,2.2107,2.2107,2.2108,0,2.2264,2.2253,2.2249,2.2241,2.2237,2.223,2.222,2.2221,2.2192,2.219,2.2186,2.2181,2.2171,2.2164,2.2153,2.2141,2.2119,2.2116,2.2119,2.2123,2.2129,2.2123,2.2056,2.2114,2.2113,2.2113,2.2113,2.2112,2.2308,2.2312,2.2297,2.2293,2.2284,2.2276,2.2277,2.2261,2.2257,2.2247,2.2232,2.2229,2.2214,2.2196,2.2187,2.2183,2.2171,2.2175,2.2176,2.2176,2.2178,2.2133,2.2182,2.2181,2.2181,2.2181,2.2181,0,2.2361,2.235,2.2347,2.2335,2.2331,2.2313,2.2302,2.2299,2.2297,2.2286,2.228,2.2274,2.2267,2.2247,2.2237,2.2238,2.2228,2.2236,2.2234,2.2231,2.2192,2.2189,2.2245,2.2245,2.2245,2.2245,2.2245,2.2245,2.2388,2.2394,2.2381,2.2381,2.237,2.2367,2.2361,2.2353,2.2343,2.2338,2.2332,2.232,2.2304,2.2293,2.2286,2.228,2.2276,2.2288,2.2278,2.2241,2.2234,2.2228,2.2225,2.2288,2.2288,2.2317,2.2318,2.2318]}]]